Flag for Cyprus Weather past 2 weeks in Nicosia, Cyprus

Now
64 °F

Scattered clouds.


Feels Like: 64 °F
Forecast: 48 / 65 °F
Wind: 5 mph from East

Location: Ercan

Current Time: Dec 28, 2014 at 1:37:49 PM

Latest Report: Dec 28, 2014 at 12:50 PM


Visibility: N/A

Pressure: 30.01 "Hg

Humidity: 60%

Dew point: 50 °F

Location of NicosiaLocation

Historic Weather in Nicosia — Graph

°F

Nicosia temperature yesterday

Maximum temperature yesterday: 63 °F (at 12:50 PM)
Minimum temperature yesterday: 45 °F (at 1:20 AM)
Average temperature yesterday: 53 °F

Past Weeks' High & Low Weather Summary

 TemperatureHumidityPressure
High66 °F (Dec 15, 12:20 PM)100% (Dec 14, 1:20 AM)30.30 "Hg (Dec 14, 1:20 AM)
Low39 °F (Dec 23, 6:20 AM)39% (Dec 23, 2:50 PM)29.89 "Hg (Dec 27, 2:50 PM)
Average54 °F80%30.11 "Hg
* Reported Dec 13 12:20 PM — Dec 28 12:20 PM, Nicosia, Weather by CustomWeather, © 2014

Note: Actual official high and low records may vary slightly from our data, if they occured in-between our weather recording intervals... More about our weather records

Advertising

Nicosia weather history for previous 24 hours

 ConditionsComfort  
Time TempWeatherWind HumidityBarometerVisibility
12:20 PM
Dec 28
64 °FScattered clouds.6 mph64%30.01 "HgN/A
11:50 AM63 °FPassing clouds.6 mph68%30.01 "HgN/A
11:20 AM61 °FPassing clouds.6 mph72%30.01 "HgN/A
10:50 AM61 °FPassing clouds.5 mph68%30.04 "HgN/A
10:20 AM61 °FPassing clouds.6 mph72%30.04 "HgN/A
9:50 AM61 °FPassing clouds.No wind72%30.04 "HgN/A
9:20 AM57 °FScattered clouds.No wind82%30.04 "HgN/A
8:50 AM54 °FScattered clouds.No wind94%30.01 "HgN/A
8:20 AM52 °FScattered clouds.3 mph94%30.01 "HgN/A
7:50 AM48 °FScattered clouds.6 mph94%29.98 "HgN/A
7:20 AM46 °FScattered clouds.No wind93%29.98 "HgN/A
6:50 AM46 °FPassing clouds.3 mph93%29.98 "HgN/A
6:20 AM46 °FPassing clouds.5 mph93%29.95 "Hg4 mi
5:20 AM48 °FPassing clouds.No wind94%29.95 "Hg4 mi
4:50 AM48 °FFog.3 mph94%29.95 "HgN/A
4:20 AM48 °FPartly cloudy.No wind94%29.95 "Hg4 mi
3:50 AM48 °FFog.No wind94%29.95 "Hg2 mi
3:20 AM48 °FFog.6 mph94%29.95 "Hg3 mi
2:50 AM50 °FPassing clouds.6 mph94%29.95 "HgN/A
2:20 AM50 °FPassing clouds.5 mph94%29.95 "HgN/A
1:50 AM50 °FPassing clouds.3 mph94%29.95 "HgN/A
1:20 AM52 °FPassing clouds.3 mph94%29.95 "HgN/A
12:50 AM52 °FPassing clouds.6 mph94%29.95 "Hg4 mi
12:20 AM50 °FPassing clouds.5 mph94%29.95 "Hg4 mi
11:50 PM
Dec 27
52 °FPassing clouds.7 mph94%29.95 "Hg5 mi
11:20 PM52 °FPartly cloudy.No wind94%29.95 "Hg5 mi
10:50 PM52 °FPartly cloudy.5 mph94%29.95 "Hg5 mi
10:20 PM52 °FPartly cloudy.No wind94%29.95 "Hg5 mi
9:50 PM52 °FPartly cloudy.No wind94%29.95 "HgN/A
9:20 PM52 °FPartly cloudy.3 mph88%29.95 "HgN/A
8:50 PM50 °FPassing clouds.No wind94%29.95 "HgN/A
8:20 PM52 °FPassing clouds.3 mph94%29.92 "HgN/A
7:50 PM52 °FPassing clouds.3 mph94%29.92 "HgN/A
7:20 PM52 °FPassing clouds.5 mph88%29.92 "HgN/A
6:50 PM55 °FPassing clouds.6 mph88%29.92 "HgN/A
6:20 PM54 °FPartly cloudy.6 mph88%29.92 "HgN/A
5:50 PM55 °FPartly cloudy.No wind88%29.92 "HgN/A
5:20 PM55 °FPartly cloudy.No wind88%29.92 "HgN/A
4:50 PM55 °FPartly cloudy.No wind88%29.92 "HgN/A
4:20 PM55 °FBroken clouds.No wind88%29.92 "HgN/A
4:00 PM55 °FBroken clouds.5 mph88%29.92 "HgN/A
3:50 PM55 °FSprinkles. Broken clouds.3 mph88%29.92 "HgN/A
3:20 PM59 °FSprinkles. Broken clouds.7 mph88%29.92 "Hg4 mi
2:50 PM59 °FBroken clouds.5 mph88%29.89 "HgN/A
2:20 PM59 °FRain showers. Broken clouds.5 mph82%29.92 "Hg4 mi
2:00 PM61 °FSprinkles. Broken clouds.5 mph77%29.92 "Hg5 mi
1:20 PM63 °FScattered clouds.5 mph73%29.92 "HgN/A
Weather by CustomWeather, © 2014

See weather overviewHow to use our weather pages